Location: Larkspur
(54.4391°N, 113.7691°W)
Time: 19:07:20
(UTC+00:00)

LilacSat-2 - Pass Details

Date: 12 December 2023
Orbit: 485 x 504 km, 97.5° (Epoch: 21 February)

Event Time Altitude Azimuth Distance (km) Brightness Sun altitude
Rises 01:26:32 0° 190° (S) 2,584 ? -18.3°
Reaches altitude 10° 01:28:46 10° 201° (SSW) 1,710 ? -18.6°
Maximum altitude 01:32:04 31° 264° (W) 916 ? -19.1°
Drops below altitude 10° 01:35:25 10° 328° (NNW) 1,737 ? -19.6°
Sets 01:37:43 0° 339° (NNW) 2,632 ? -19.9°
